Flag for U.S.A. Weather past 2 weeks in Decatur, Illinois, U.S.A.

Now
73 °F

Light rain. Passing clouds.


Feels Like: 72 °F
Forecast: 54 / 69 °F
Wind: 9 mph from Southwest

Location: Decatur Airport

Current Time: Sep 20, 2014 at 11:36:49 PM

Latest Report: Sep 20, 2014 at 10:54 PM


Visibility: 10 mi

Pressure: 29.86 "Hg

Humidity: 84%

Dew point: 68 °F

Location of DecaturLocation

Historic Weather in Decatur — Graph

°F

Decatur temperature yesterday

Maximum temperature yesterday: 77 °F (at 3:54 PM)
Minimum temperature yesterday: 46 °F (at 5:54 AM)
Average temperature yesterday: 62 °F

Past Weeks' High & Low Weather Summary

 TemperatureHumidityPressure
High83 °F (Sep 20, 12:54 PM)100% (Sep 15, 1:54 PM)30.40 "Hg (Sep 15, 1:54 PM)
Low41 °F (Sep 14, 5:54 AM)36% (Sep 14, 5:54 PM)29.65 "Hg (Sep 10, 3:54 PM)
Average61 °F77%30.10 "Hg
* Reported Sep 5 10:02 PM — Sep 20 9:54 PM, Decatur, Weather by CustomWeather, © 2014

Note: Actual official high and low records may vary slightly from our data, if they occured in-between our weather recording intervals... More about our weather records

Advertising

Decatur weather history for previous 24 hours

 ConditionsComfort  
Time TempWeatherWind HumidityBarometerVisibility
9:54 PM
Sep 20
73 °FClear.12 mph84%29.86 "Hg10 mi
8:54 PM71 °FClear.8 mph93%29.86 "Hg8 mi
7:54 PM72 °FFog.5 mph93%29.88 "Hg4 mi
6:54 PM75 °FLight rain. Fog.3 mph90%29.88 "Hg6 mi
5:54 PM75 °FLight rain. Broken clouds.6 mph88%29.88 "Hg7 mi
4:54 PM75 °FLight rain. Broken clouds.10 mph88%29.88 "Hg8 mi
4:01 PM80 °FHeavy rain. Partly sunny.16 mph69%29.89 "Hg2 mi
2:54 PM83 °FSunny.18 mph61%29.89 "Hg10 mi
1:54 PM83 °FSunny.18 mph61%29.90 "Hg10 mi
12:54 PM83 °FSunny.18 mph61%29.92 "Hg10 mi
7:54 AM63 °FSunny.10 mph81%30.01 "Hg10 mi
6:54 AM59 °FClear.7 mph87%30.01 "Hg8 mi
5:54 AM58 °FClear.7 mph87%30.00 "Hg10 mi
4:54 AM59 °FClear.6 mph84%29.98 "Hg10 mi
3:54 AM61 °FClear.9 mph78%29.98 "Hg10 mi
2:54 AM60 °FClear.8 mph80%29.99 "Hg10 mi
1:54 AM61 °FClear.10 mph78%29.97 "Hg10 mi
12:54 AM62 °FClear.10 mph75%29.98 "Hg10 mi
11:54 PM
Sep 19
59 °FClear.6 mph81%30.01 "Hg10 mi
Weather by CustomWeather, © 2014

See weather overviewHow to use our weather pages